• Processing (Info)

  • MPEC 2019-U183 : 2019 UE7

    The following Minor Planet Electronic Circular may be linked-to from your own Web pages, but must not otherwise be redistributed electronically.

    A form allowing access to any MPEC is at the bottom of this page.


    Read MPEC 2019-U182 Read MPEC 2019-U184


    M.P.E.C. 2019-U183                             Issued 2019 October 26, 12:52 UT
    
         The Minor Planet Electronic Circulars contain information on unusual
             minor planets and routine data on comets.  They are published
        on behalf of Division F of the International Astronomical Union by the
              Minor Planet Center, Smithsonian Astrophysical Observatory,
                              Cambridge, MA 02138, U.S.A.
    
                 Prepared using the Tamkin Foundation Computer Network
    
                                  MPC@CFA.HARVARD.EDU
                URL https://www.minorplanetcenter.net/    ISSN 1523-6714
    
                                    2019 UE7                                 
    
    
    Observations:
         K19U07E* C2019 10 24.22848 02 34 25.73 +21 12 15.4          21.7 GVEU183G96
         K19U07E  C2019 10 24.23374 02 34 24.66 +21 12 03.4          21.3 GVEU183G96
         K19U07E  C2019 10 24.23899 02 34 23.59 +21 11 51.5          21.8 GVEU183G96
         K19U07E  C2019 10 24.24425 02 34 22.58 +21 11 39.6          21.7 GVEU183G96
         K19U07E  C2019 10 24.27809802 34 15.70 +21 10 21.3          21.0 GVEU183H01
         K19U07E  C2019 10 24.28546302 34 14.22 +21 10 04.5          21.6 GVEU183H01
         K19U07E  C2019 10 24.29886102 34 11.56 +21 09 33.6          21.0 GVEU183H01
         K19U07E  C2019 10 24.30372602 34 10.58 +21 09 22.4          20.9 GVEU183H01
         K19U07E  C2019 10 24.34329 02 34 02.78 +21 07 51.9          20.7 GVEU183I52
         K19U07E  C2019 10 24.35096 02 34 01.25 +21 07 34.2          20.5 GVEU183I52
         K19U07E  C2019 10 24.35680 02 34 00.12 +21 07 20.8          20.2 GVEU183I52
         K19U07E  C2019 10 24.36264 02 33 58.98 +21 07 07.0          20.2 GVEU183I52
         K19U07E  C2019 10 24.53871502 33 25.118+21 00 27.38         21.1 GVEU183F51
         K19U07E  C2019 10 24.55100302 33 22.704+20 59 58.99         21.2 GVEU183F51
         K19U07E KC2019 10 25.00323 02 31 59.49 +20 42 46.5          20.7 RoEU183K88
         K19U07E KC2019 10 25.01710 02 31 56.86 +20 42 15.3          20.7 RoEU183K88
         K19U07E IC2019 10 25.97475702 29 06.86 +20 07 16.4          21.1 GVEU183L01
         K19U07E pC2019 10 25.97870002 29 06.09 +20 07 07.8          21.3 GVEU183L01
         K19U07E KC2019 10 25.98184902 29 05.51 +20 07 00.5          21.2 GVEU183L01
         K19U07E  C2019 10 26.35482 02 28 01.33 +19 53 50.8          21.5 GVEU183I52
         K19U07E  C2019 10 26.35944 02 28 00.52 +19 53 41.1          21.1 GVEU183I52
         K19U07E  C2019 10 26.36277 02 27 59.90 +19 53 34.2          21.3 GVEU183I52
         K19U07E  C2019 10 26.36611 02 27 59.30 +19 53 27.6          20.9 GVEU183I52
    
    Observer details:
    F51 Pan-STARRS 1, Haleakala.  Observers J. Bulger, K. Chambers, T. Lowe, E. 
       Magnier, A. Schultz, M. Willman.  Measurers S. Chastel, M. Huber, Y. 
       Ramanjooloo, R. Wainscoat, R. Weryk.  1.8-m Ritchey-Chretien + CCD.
    G96 Mt. Lemmon Survey.  Observer G. J. Leonard.  Measurers E. J. Christensen, 
       G. A. Farneth, D. C. Fuls, A. R. Gibbs, A. D. Grauer, H. Groeller, R. A. 
       Kowalski, S. M. Larson, G. J. Leonard, T. A. Pruyne, D. Rankin, R. L. Seaman,
        F. C. Shelly, K. W. Wierzchos.  1.5-m reflector + 10K CCD.
    H01 Magdalena Ridge Observatory, Socorro.  Observers W. H. Ryan, E. V. Ryan.  
        Measurer W. H. Ryan.  2.4-m f/8.9 Ritchey-Chretien + CCD.
    I52 Steward Observatory, Mt. Lemmon Station.  Observers R. A. Kowalski, K. W. 
       Wierzchos, D. C. Fuls.  Measurers E. J. Christensen, G. A. Farneth, D. C. 
       Fuls, A. R. Gibbs, A. D. Grauer, H. Groeller, R. A. Kowalski, S. M. Larson, 
       G. J. Leonard, T. A. Pruyne, D. Rankin, R. L. Seaman, F. C. Shelly, K. W. 
       Wierzchos.  1.0-m reflector + CCD.
    K88 GINOP-KHK, Piszkesteto.  Observer G. Csornyei.  Measurer K. Sarneczky.  
        0.60-m Schmidt + CCD.
    L01 Visnjan Observatory, Tican.  Observers K. Korlevic, F. Valentine.  Measurer 
       K. Korlevic.  1.0-m f/2.9 reflector + CCD.
    
    Orbital elements:
    2019 UE7                                                 Earth MOID = 0.0369 AU
    Epoch 2019 Apr. 27.0 TT = JDT 2458600.5                 Veres
    M 327.79646              (2000.0)            P               Q
    n   0.30511720     Peri.   63.60784     +0.32816908     +0.94063322
    a   2.1852020      Node   225.83571     -0.90401959     +0.28612510
    e   0.7025220      Incl.    6.94062     -0.27395918     +0.18259672
    P   3.23           H   22.4           G   0.15           U   8
    Residuals in seconds of arc
    191024 G96  0.2+  0.2-    191024 I52  0.1+  0.1+    191025 L01  0.9+  0.3+
    191024 G96  0.1-  0.1-    191024 I52  0.1+  0.1+    191025 L01  0.1+  0.2+
    191024 G96  0.4-  0.0     191024 I52  0.6+  0.2+    191025 L01  0.0   0.4-
    191024 G96  0.1+  0.1+    191024 I52  0.9+  0.1-    191026 I52  0.1-  0.3-
    191024 H01  0.1-  0.1-    191024 F51  0.1-  0.1-    191026 I52  0.1+  0.2-
    191024 H01  0.2-  0.1+    191024 F51  0.1-  0.0     191026 I52  0.2-  0.1-
    191024 H01  0.1+  0.0     191025 K88  0.5-  0.2+    191026 I52  0.3-  0.4+
    191024 H01  0.0   0.0     191025 K88  0.4-  0.3+
    
    Ephemeris:
    2019 UE7                 a,e,i = 2.19, 0.70, 7                   q = 0.6500
    Date    TT    R. A. (2000) Decl.     Delta      r    Elong.  Phase     V
    2019 09 26    06 27 12.4 +45 36 17   0.1808  1.0110    87.4    82.3    21.6
    ...
    2019 10 11    03 37 48.1 +32 10 36   0.2401  1.1829   135.9    35.9    21.1
    ...
    2019 10 19    02 53 49.5 +24 56 57   0.2986  1.2739   155.4    19.0    21.3
    ...
    2019 10 25    02 32 00.6 +20 43 07   0.3527  1.3411   167.5     9.2    21.4
    2019 10 26    02 29 02.6 +20 06 34   0.3625  1.3522   169.3     7.8    21.4
    2019 10 27    02 26 14.4 +19 31 34   0.3725  1.3633   171.1     6.5    21.4
    ...
    2019 11 02    02 12 26.4 +16 31 39   0.4374  1.4291   176.1     2.7    21.7
    ...
    2019 11 10    02 00 24.8 +13 39 55   0.5355  1.5151   165.7     9.3    22.6
    ...
    2019 11 25    01 50 54.0 +10 44 38   0.7514  1.6702   147.4    18.6    23.8
    
    A. U. Tomatic                (C) Copyright 2019 MPC           M.P.E.C. 2019-U183
    


    Read MPEC 2019-U182 Read MPEC 2019-U184


    MPEC number:

    Enter an MPEC number in one of the following forms:

    • 1997-B01 (the full form)
    • J97B01 (the packed version of the full form)
    • B01 (the abbreviated form)